Starlink 34038

operational
NORAD ID: 63911 Int'l Des: 2025-095 Owner: SPXS Country: US Constellation: starlink
LEOCIRCULAR

关于 Starlink 34038

正在加载描述...

实时位置

正在加载3D地球...

即将过境

高度历史

Altitude vs Time

uPlot chart will show altitude changes over time

两行轨道根数

1 63911U 25095X 26061.14512573 .00026364 00000-0 96340-3 0 9990
2 63911 43.0055 218.8530 0002248 277.3612 82.6985 15.27604208 46621
Epoch: Mar 2, 2026 • Age: 27 hours

当前状态

高度 494.6 km
速度 7.62 km/s
星下点 -42.96°S, 70.37°W
发射日期 May 10, 2025
运行时间 0.8 years
类型 internet

技术详情

分类 Payload
质量 575.00 kg
干质量 530.00 kg
总质量 575.00 kg
长度 0.30 m
直径 4.10 m
跨度 29.00 m
形状 Box + pan
制造商 SPXS
平台类型 Starlink V2MO
阶段状态 In Orbit
所有者/国家 SPXS/US

大型星座

Loading constellations...